Location: Cornospital
(48.0620°N, 3.3837°W)
Time: 19:22:54
(UTC+00:00)

Meteor 2-10 Rocket - Pass Details

Date: 17 June 2021
Orbit: 734 x 885 km, 81.2° (Epoch: 02 August)

Event Time Altitude Azimuth Distance (km) Brightness Sun altitude
Rises 22:44:33 0° 348° (NNW) 3,236 8.5 -15.7°
Reaches altitude 10° 22:46:56 10° 348° (NNW) 2,289 7.3 -15.9°
Maximum altitude 22:52:03 88° 260° (W) 748 3.4 -16.2°
Enters shadow 22:54:49 27° 171° (S) 1,380 4.2 -16.3°
